GW5121 Weather Reports


time (UTC)temp
C
wind
direction
speed
KPH
gust
KPH
rain 1hr
cm
rain 24hr
cm
rain mn
cm
humidity
%
barometer
mb
20260510095216 10 136 1.6 1.6 0.00 0.00 0.00 95 1013.6
20260510094715 10 136 0.0 4.8 0.00 0.00 0.00 95 1013.8
20260510094211 10 136 3.2 4.8 0.00 0.00 0.00 95 1013.9
20260510093707 10 136 3.2 4.8 0.00 0.00 0.00 95 1013.9
20260510093204 10 136 3.2 4.8 0.00 0.00 0.00 95 1013.7
20260510092700 10 145 3.2 4.8 0.00 0.00 0.00 95 1013.7
20260510092156 10 145 1.6 1.6 0.00 0.00 0.00 96 1013.7
20260510091652 10 145 0.0 3.2 0.00 0.00 0.00 96 1013.7
20260510091148 10 145 3.2 4.8 0.00 0.00 0.00 96 1013.5
20260510090645 10 164 0.0 0.0 0.00 0.00 0.00 96 1013.4
20260510090142 10 164 0.0 0.0 0.00 0.00 0.00 96 1013.4
20260510085637 10 164 0.0 0.0 0.00 0.00 0.00 96 1013.1
20260510085132 10 164 0.0 0.0 0.00 0.00 0.00 96 1013.4
20260510084629 10 164 1.6 3.2 0.00 0.00 0.00 96 1013.0
20260510084126 10 164 1.6 3.2 0.00 0.00 0.00 96 1013.1
20260510083622 10 163 0.0 0.0 0.00 0.00 0.00 96 1013.1
20260510083119 10 164 0.0 0.0 0.00 0.00 0.00 96 1012.8
20260510082615 10 164 0.0 0.0 0.00 0.00 0.00 96 1013.0
20260510082111 10 164 0.0 0.0 0.00 0.00 0.00 96 1013.0
20260510081606 10 164 1.6 1.6 0.00 0.00 0.00 96 1013.1
20260510081102 10 163 0.0 1.6 0.00 0.00 0.00 96 1013.0
20260510080602 10 164 1.6 1.6 0.00 0.00 0.00 96 1013.0
20260510080058 10 163 0.0 1.6 0.00 0.00 0.00 96 1013.0
20260510075555 10 163 0.0 0.0 0.00 0.00 0.00 96 1013.0
20260510075052 10 163 0.0 0.0 0.00 0.00 0.00 96 1012.9
20260510074550 10 164 1.6 1.6 0.00 0.00 0.00 96 1012.7
20260510074045 10 163 3.2 3.2 0.00 0.00 0.00 96 1012.8
20260510073541 10 164 3.2 3.2 0.00 0.00 0.00 96 1012.8
20260510073039 10 163 1.6 1.6 0.00 0.00 0.00 96 1013.1
20260510072535 10 163 0.0 1.6 0.00 0.00 0.00 96 1013.0
20260510072031 10 164 0.0 0.0 0.00 0.00 0.00 96 1013.0
20260510071527 10 163 0.0 3.2 0.00 0.00 0.00 96 1012.9
20260510071026 10 164 0.0 1.6 0.00 0.00 0.00 96 1013.1
20260510070522 10 164 1.6 3.2 0.00 0.00 0.00 96 1013.1
20260510070019 10 163 3.2 3.2 0.00 0.00 0.00 96 1012.8
20260510065515 10 164 1.6 3.2 0.00 0.00 0.00 96 1013.0
20260510065011 10 164 0.0 0.0 0.00 0.00 0.00 96 1012.8
20260510064508 10 164 0.0 0.0 0.00 0.00 0.00 95 1013.0
20260510064005 10 164 0.0 0.0 0.00 0.00 0.00 95 1012.9
20260510063502 10 164 0.0 0.0 0.00 0.00 0.00 95 1013.0
20260510062959 10 164 0.0 0.0 0.00 0.00 0.00 94 1013.0
20260510062455 10 164 0.0 0.0 0.00 0.00 0.00 94 1013.0
20260510061949 11 164 0.0 0.0 0.00 0.00 0.00 94 1012.9
20260510061447 11 164 0.0 0.0 0.00 0.00 0.00 94 1012.9
20260510060943 11 164 0.0 0.0 0.00 0.00 0.00 94 1013.1
20260510060440 11 164 1.6 1.6 0.00 0.00 0.00 94 1013.0
20260510055936 11 164 0.0 0.0 0.00 0.00 0.00 94 1013.1
20260510055432 11 164 1.6 1.6 0.00 0.00 0.00 94 1013.0
20260510054925 11 164 1.6 3.2 0.00 0.00 0.00 95 1013.1
20260510054420 10 164 1.6 1.6 0.00 0.00 0.00 95 1013.0
20260510053915 11 164 0.0 0.0 0.00 0.00 0.00 95 1013.1
20260510053411 10 164 0.0 1.6 0.00 0.00 0.00 95 1013.0
20260510052908 10 164 1.6 1.6 0.00 0.00 0.00 95 1013.4
20260510052403 10 164 0.0 0.0 0.00 0.00 0.00 95 1013.5
20260510051900 10 164 0.0 0.0 0.00 0.00 0.00 95 1013.6
20260510051356 10 164 0.0 0.0 0.00 0.00 0.00 95 1013.6
20260510050853 10 164 0.0 0.0 0.00 0.00 0.00 95 1013.4
20260510050350 10 164 0.0 0.0 0.00 0.00 0.00 95 1013.6
20260510045847 10 164 0.0 0.0 0.00 0.00 0.00 95 1013.6
20260510045343 10 164 1.6 1.6 0.00 0.00 0.00 95 1013.4
20260510044841 10 164 0.0 0.0 0.00 0.00 0.00 95 1013.5
20260510044337 10 164 0.0 0.0 0.00 0.00 0.00 95 1013.4
20260510043834 10 164 0.0 0.0 0.00 0.00 0.00 94 1013.2
20260510043330 10 164 1.6 1.6 0.00 0.00 0.00 94 1013.5
20260510042828 10 164 0.0 1.6 0.00 0.00 0.00 94 1013.5
20260510042324 10 164 0.0 0.0 0.00 0.00 0.00 93 1013.5
20260510041820 10 164 0.0 0.0 0.00 0.00 0.00 93 1013.4
20260510041318 10 164 0.0 1.6 0.00 0.00 0.00 92 1013.4
20260510040815 11 164 0.0 1.6 0.00 0.00 0.00 92 1013.4
20260510040311 11 164 0.0 0.0 0.00 0.00 0.00 92 1013.4
20260510035807 11 164 1.6 3.2 0.00 0.00 0.00 92 1013.1
20260510035306 11 164 0.0 1.6 0.00 0.00 0.00 93 1012.8
20260510034758 10 163 0.0 3.2 0.00 0.00 0.00 94 1013.1
20260510034256 10 164 0.0 3.2 0.00 0.00 0.00 93 1012.9
20260510033753 10 164 3.2 4.8 0.00 0.00 0.00 92 1012.9
20260510033250 11 208 3.2 3.2 0.00 0.00 0.00 90 1012.8
20260510032746 11 208 0.0 0.0 0.00 0.00 0.00 89 1012.9
20260510032243 11 208 0.0 0.0 0.00 0.00 0.00 88 1012.8
20260510031738 12 208 0.0 0.0 0.00 0.00 0.00 87 1012.9
20260510031234 12 208 0.0 0.0 0.00 0.00 0.00 86 1012.8
20260510030733 12 208 0.0 1.6 0.00 0.00 0.00 86 1012.7
20260510030231 12 208 0.0 0.0 0.00 0.00 0.00 86 1012.6
20260510025728 12 208 0.0 4.8 0.00 0.00 0.00 84 1012.6
20260510025226 13 244 1.6 1.6 0.00 0.00 0.00 81 1012.6
20260510024722 13 245 1.6 4.8 0.00 0.00 0.00 80 1012.4
20260510024219 13 220 0.0 0.0 0.00 0.00 0.00 80 1012.3
20260510023714 13 223 1.6 6.4 0.00 0.00 0.00 79 1012.4
20260510023211 13 197 1.6 4.8 0.00 0.00 0.00 79 1012.5
20260510022707 13 232 3.2 3.2 0.00 0.00 0.00 80 1012.3
20260510022202 13 232 1.6 3.2 0.00 0.00 0.00 80 1012.3
20260510021657 13 232 0.0 1.6 0.00 0.00 0.00 81 1012.3
20260510021155 13 233 0.0 3.2 0.00 0.00 0.00 82 1012.2
20260510020650 13 233 0.0 1.6 0.00 0.00 0.00 82 1012.2
20260510020145 13 228 3.2 4.8 0.00 0.00 0.00 83 1012.3
20260510015642 13 229 0.0 1.6 0.00 0.00 0.00 84 1012.0
20260510015138 12 229 0.0 0.0 0.00 0.00 0.00 83 1012.1
20260510014638 13 229 0.0 0.0 0.00 0.00 0.00 82 1012.0
20260510014136 13 229 0.0 0.0 0.00 0.00 0.00 81 1012.0
20260510013631 13 229 0.0 0.0 0.00 0.00 0.00 79 1011.9
20260510013127 14 229 0.0 0.0 0.00 0.00 0.00 77 1011.9
20260510012626 15 208 0.0 3.2 0.00 0.00 0.00 76 1011.7
20260510012123 15 208 0.0 0.0 0.00 0.00 0.00 75 1011.7
20260510011622 15 208 0.0 0.0 0.00 0.00 0.00 75 1011.5
20260510011118 15 208 1.6 1.6 0.00 0.00 0.00 74 1011.6
20260510010615 15 208 0.0 1.6 0.00 0.00 0.00 74 1011.4
20260510010112 15 208 0.0 0.0 0.00 0.00 0.00 74 1011.2
20260510005607 16 208 0.0 0.0 0.00 0.00 0.00 72 1011.4
20260510005105 16 208 0.0 1.6 0.00 0.00 0.00 70 1011.2
20260510004603 16 208 3.2 4.8 0.00 0.00 0.00 68 1011.1
20260510004101 16 205 0.0 0.0 0.00 0.00 0.00 69 1011.1
20260510003557 17 205 1.6 3.2 0.00 0.00 0.00 67 1011.0
20260510003053 17 205 1.6 4.8 0.00 0.00 0.00 65 1010.8
20260510002548 17 232 3.2 3.2 0.00 0.00 0.00 65 1010.8
20260510002046 17 211 1.6 3.2 0.00 0.00 0.00 64 1010.7
20260510001543 17 248 0.0 3.2 0.00 0.00 0.00 64 1010.7
20260510001041 17 248 1.6 1.6 0.00 0.00 0.00 63 1010.6
20260510000537 18 247 3.2 3.2 0.00 0.00 0.00 63 1010.9
20260510000034 18 220 1.6 4.8 0.00 0.00 0.00 61 1010.7
20260509235530 18 238 0.0 3.2 0.00 0.00 0.00 61 1010.5
20260509235027 18 205 4.8 4.8 0.00 0.00 0.00 59 1010.5
20260509234523 19 194 3.2 6.4 0.00 0.00 0.00 58 1010.8
20260509234021 19 211 3.2 9.7 0.00 0.00 0.00 58 1010.6
20260509233518 19 235 3.2 4.8 0.00 0.00 0.00 58 1010.5
20260509233015 19 251 6.4 6.4 0.00 0.00 0.00 58 1010.5
20260509232512 19 217 4.8 6.4 0.00 0.00 0.00 59 1010.5
20260509232009 19 227 4.8 6.4 0.00 0.00 0.00 58 1010.2
20260509231505 19 200 6.4 17.7 0.00 0.00 0.00 57 1010.4
20260509231003 20 243 3.2 4.8 0.00 0.00 0.00 57 1010.2
20260509230459 20 236 1.6 6.4 0.00 0.00 0.00 58 1010.2
20260509225956 20 210 6.4 11.3 0.00 0.00 0.00 56 1010.4
20260509225452 20 239 3.2 9.7 0.00 0.00 0.00 57 1010.5
20260509224948 20 247 8.0 9.7 0.00 0.00 0.00 56 1010.5
20260509224443 20 215 4.8 17.7 0.00 0.00 0.00 56 1010.7
20260509223941 20 262 3.2 9.7 0.00 0.00 0.00 56 1010.6
20260509223437 19 249 4.8 9.7 0.00 0.00 0.00 56 1010.7
20260509222935 19 251 6.4 14.5 0.00 0.00 0.00 56 1010.5
20260509222430 20 269 4.8 9.7 0.00 0.00 0.00 55 1010.9
20260509221926 20 237 3.2 4.8 0.00 0.00 0.00 56 1010.8
20260509221423 20 268 3.2 6.4 0.00 0.00 0.00 53 1010.8
20260509220918 20 200 6.4 16.1 0.00 0.00 0.00 54 1010.7
20260509220415 20 272 6.4 9.7 0.00 0.00 0.00 54 1010.6
20260509215911 20 269 6.4 14.5 0.00 0.00 0.00 54 1010.5
20260509215406 20 277 4.8 14.5 0.00 0.00 0.00 53 1010.7
20260509214904 20 245 6.4 6.4 0.00 0.00 0.00 55 1010.7
20260509214401 20 234 4.8 9.7 0.00 0.00 0.00 56 1010.8
20260509213858 20 268 4.8 4.8 0.00 0.00 0.00 55 1010.7
20260509213354 20 246 4.8 11.3 0.00 0.00 0.00 56 1010.8
20260509212851 20 232 3.2 6.4 0.00 0.00 0.00 57 1010.7
20260509212343 20 232 6.4 9.7 0.00 0.00 0.00 54 1010.5
20260509211839 20 156 9.7 16.1 0.00 0.00 0.00 54 1010.7
20260509211335 20 265 4.8 6.4 0.00 0.00 0.00 57 1010.8
20260509210831 20 226 3.2 6.4 0.00 0.00 0.00 56 1010.7
20260509210329 19 264 3.2 4.8 0.00 0.00 0.00 56 1010.6
20260509205828 19 260 1.6 6.4 0.00 0.00 0.00 57 1010.7
20260509205323 19 271 6.4 9.7 0.00 0.00 0.00 56 1010.7
20260509204820 19 212 3.2 6.4 0.00 0.00 0.00 56 1010.7
20260509204316 20 259 6.4 9.7 0.00 0.00 0.00 54 1010.6
20260509203813 20 288 9.7 17.7 0.00 0.00 0.00 53 1010.4
20260509203310 20 237 4.8 11.3 0.00 0.00 0.00 53 1010.5
20260509202806 21 261 9.7 14.5 0.00 0.00 0.00 51 1010.4
20260509202306 20 271 3.2 4.8 0.00 0.00 0.00 55 1010.0
20260509201801 20 261 4.8 9.7 0.00 0.00 0.00 51 1010.2
20260509201259 20 226 3.2 16.1 0.00 0.00 0.00 50 1010.4
20260509200755 21 267 11.3 14.5 0.00 0.00 0.00 50 1010.4
20260509200250 21 252 4.8 6.4 0.00 0.00 0.00 51 1010.4
20260509195746 21 273 4.8 11.3 0.00 0.00 0.00 51 1010.4
20260509195242 20 196 4.8 9.7 0.00 0.00 0.00 53 1010.5
20260509194741 20 245 6.4 6.4 0.00 0.00 0.00 54 1010.6
20260509194238 20 265 6.4 12.9 0.00 0.00 0.00 54 1010.6
20260509193735 20 263 3.2 9.7 0.00 0.00 0.00 55 1010.6
20260509193234 20 271 8.0 14.5 0.00 0.00 0.00 55 1010.6
20260509192731 20 253 4.8 11.3 0.00 0.00 0.00 53 1010.6
20260509192226 20 213 4.8 6.4 0.00 0.00 0.00 53 1010.6
20260509191722 20 230 3.2 9.7 0.00 0.00 0.00 55 1010.6
20260509191219 20 211 4.8 4.8 0.00 0.00 0.00 53 1010.6
20260509190715 21 260 9.7 12.9 0.00 0.00 0.00 53 1010.6
20260509190212 20 267 8.0 9.7 0.00 0.00 0.00 52 1010.5
20260509185710 20 261 9.7 12.9 0.00 0.00 0.00 52 1010.5
20260509185205 20 270 3.2 4.8 0.00 0.00 0.00 58 1010.4
20260509184703 20 261 6.4 9.7 0.00 0.00 0.00 57 1010.5
20260509184200 20 260 6.4 11.3 0.00 0.00 0.00 53 1010.6
20260509183656 20 228 4.8 11.3 0.00 0.00 0.00 51 1010.6
20260509183151 20 257 6.4 9.7 0.00 0.00 0.00 55 1010.6
20260509182647 20 196 9.7 14.5 0.00 0.00 0.00 51 1010.5
20260509182145 20 143 6.4 12.9 0.00 0.00 0.00 53 1010.6
20260509181643 20 268 6.4 12.9 0.00 0.00 0.00 55 1010.6
20260509181140 21 236 9.7 12.9 0.00 0.00 0.00 54 1010.7
20260509180637 21 231 12.9 17.7 0.00 0.00 0.00 51 1010.7
20260509180133 20 187 6.4 12.9 0.00 0.00 0.00 55 1010.7
20260509175629 20 189 17.7 20.9 0.00 0.00 0.00 52 1010.7
20260509175126 19 258 6.4 11.3 0.00 0.00 0.00 55 1010.8
20260509174622 20 187 14.5 22.5 0.00 0.00 0.00 55 1010.9
20260509174117 19 256 3.2 14.5 0.00 0.00 0.00 60 1011.0
20260509173613 19 265 4.8 12.9 0.00 0.00 0.00 58 1010.8
20260509173109 18 249 4.8 12.9 0.00 0.00 0.00 61 1010.9
20260509172606 18 249 4.8 11.3 0.00 0.00 0.00 60 1011.0
20260509172102 18 259 6.4 14.5 0.00 0.00 0.00 60 1011.1
20260509171558 18 273 8.0 14.5 0.00 0.00 0.00 59 1010.9
20260509171054 18 162 11.3 22.5 0.00 0.00 0.00 58 1011.2
20260509170550 18 201 8.0 9.7 0.00 0.00 0.00 60 1011.1
20260509170046 18 193 8.0 9.7 0.00 0.00 0.00 57 1011.2
20260509165545 18 263 4.8 12.9 0.00 0.00 0.00 60 1011.2
20260509165040 18 260 3.2 4.8 0.00 0.00 0.00 61 1011.5
20260509164537 18 227 6.4 11.3 0.00 0.00 0.00 60 1011.2
20260509164032 18 258 4.8 11.3 0.00 0.00 0.00 62 1011.3
20260509163532 17 193 8.0 11.3 0.00 0.00 0.00 60 1011.3
20260509163032 17 244 3.2 4.8 0.00 0.00 0.00 59 1011.2
20260509162529 17 255 4.8 4.8 0.00 0.00 0.00 62 1011.3
20260509162025 17 260 6.4 9.7 0.00 0.00 0.00 61 1011.4
20260509161522 17 223 6.4 9.7 0.00 0.00 0.00 59 1011.5
20260509161022 17 242 3.2 4.8 0.00 0.00 0.00 62 1011.5
20260509160518 17 199 8.0 11.3 0.00 0.00 0.00 60 1011.6
20260509160014 17 272 6.4 9.7 0.00 0.00 0.00 59 1011.7
20260509155510 17 245 1.6 9.7 0.00 0.00 0.00 59 1011.6
20260509155006 17 223 9.7 16.1 0.00 0.00 0.00 60 1011.5
20260509154502 17 216 4.8 6.4 0.00 0.00 0.00 61 1011.4
20260509154000 16 220 4.8 11.3 0.00 0.00 0.00 59 1011.3
20260509153457 16 260 1.6 6.4 0.00 0.00 0.00 61 1011.3
20260509152953 16 246 3.2 6.4 0.00 0.00 0.00 60 1011.3
20260509152449 16 208 3.2 6.4 0.00 0.00 0.00 60 1011.5
20260509151946 16 276 4.8 4.8 0.00 0.00 0.00 57 1011.3
20260509151442 16 276 3.2 4.8 0.00 0.00 0.00 59 1011.3
20260509150941 16 248 6.4 9.7 0.00 0.00 0.00 56 1011.6
20260509150438 17 246 3.2 4.8 0.00 0.00 0.00 57 1011.4
20260509145936 17 249 4.8 6.4 0.00 0.00 0.00 55 1011.6
20260509145431 16 253 3.2 4.8 0.00 0.00 0.00 57 1011.5
20260509144927 16 247 3.2 6.4 0.00 0.00 0.00 57 1011.5
20260509144424 16 249 3.2 4.8 0.00 0.00 0.00 58 1011.7
20260509143921 16 246 3.2 4.8 0.00 0.00 0.00 58 1011.8
20260509143418 16 239 3.2 6.4 0.00 0.00 0.00 58 1011.8
20260509142915 16 224 3.2 9.7 0.00 0.00 0.00 57 1011.8
20260509142411 16 249 3.2 6.4 0.00 0.00 0.00 56 1011.4
20260509141907 16 205 6.4 11.3 0.00 0.00 0.00 55 1011.4
20260509141404 16 265 3.2 6.4 0.00 0.00 0.00 56 1011.4
20260509140901 17 266 4.8 6.4 0.00 0.00 0.00 57 1011.2
20260509140357 17 309 1.6 3.2 0.00 0.00 0.00 61 1011.1
20260509135855 17 309 4.8 6.4 0.00 0.00 0.00 57 1011.2
20260509135353 17 343 3.2 3.2 0.00 0.00 0.00 58 1011.4
20260509134850 17 344 3.2 4.8 0.00 0.00 0.00 61 1011.2
20260509134347 16 344 0.0 1.6 0.00 0.00 0.00 66 1011.2
20260509133844 16 344 0.0 3.2 0.00 0.00 0.00 67 1011.3
20260509133341 16 344 0.0 1.6 0.00 0.00 0.00 65 1011.3
20260509132840 16 344 3.2 4.8 0.00 0.00 0.00 64 1011.2
20260509132337 16 344 1.6 1.6 0.00 0.00 0.00 64 1011.1
20260509131834 16 344 0.0 1.6 0.00 0.00 0.00 66 1011.2
20260509131331 16 344 0.0 1.6 0.00 0.00 0.00 62 1011.2
20260509130827 15 344 0.0 1.6 0.00 0.00 0.00 65 1011.4
20260509130323 15 344 3.2 3.2 0.00 0.00 0.00 64 1011.4
20260509125820 14 344 0.0 1.6 0.00 0.00 0.00 72 1011.5
20260509125316 15 344 0.0 0.0 0.00 0.00 0.00 72 1011.7
20260509124813 14 344 0.0 1.6 0.00 0.00 0.00 73 1011.7
20260509124309 14 344 0.0 0.0 0.00 0.00 0.00 73 1011.4
20260509123808 13 344 0.0 3.2 0.00 0.00 0.00 73 1011.6
20260509123305 13 344 0.0 0.0 0.00 0.00 0.00 75 1011.5
20260509122800 13 344 0.0 0.0 0.00 0.00 0.00 74 1011.6
20260509122257 13 344 0.0 0.0 0.00 0.00 0.00 77 1011.6
20260509121754 12 344 0.0 0.0 0.00 0.00 0.00 78 1011.6
20260509121251 12 344 0.0 0.0 0.00 0.00 0.00 80 1011.6
20260509120750 12 344 1.6 3.2 0.00 0.00 0.00 83 1011.5
20260509120247 12 344 0.0 3.2 0.00 0.00 0.00 81 1011.6
20260509115745 12 344 0.0 0.0 0.00 0.00 0.00 84 1011.6
20260509115241 11 344 1.6 3.2 0.00 0.00 0.00 83 1011.7
20260509114740 11 344 0.0 0.0 0.00 0.00 0.00 86 1011.8
20260509114238 11 344 0.0 0.0 0.00 0.00 0.00 86 1011.6
20260509113737 11 344 0.0 0.0 0.00 0.00 0.00 88 1011.5
20260509113233 11 344 0.0 0.0 0.00 0.00 0.00 88 1011.6
20260509112730 11 344 0.0 1.6 0.00 0.00 0.00 87 1011.6
20260509112227 11 344 0.0 0.0 0.00 0.00 0.00 86 1011.5
20260509111724 11 344 0.0 0.0 0.00 0.00 0.00 83 1011.5
20260509111221 10 344 0.0 0.0 0.00 0.00 0.00 81 1011.5
20260509110719 11 344 0.0 0.0 0.00 0.00 0.00 85 1011.5
20260509110215 10 344 0.0 1.6 0.00 0.00 0.00 83 1011.6
20260509105713 10 344 1.6 1.6 0.00 0.00 0.00 86 1011.3
20260509105211 10 344 0.0 1.6 0.00 0.00 0.00 86 1011.3
20260509104707 10 344 1.6 1.6 0.00 0.00 0.00 87 1011.5
20260509104204 10 344 0.0 0.0 0.00 0.00 0.00 88 1011.6
20260509103702 10 344 0.0 0.0 0.00 0.00 0.00 87 1011.5
20260509103159 10 344 0.0 0.0 0.00 0.00 0.00 84 1011.3
20260509102658 11 344 0.0 0.0 0.00 0.00 0.00 82 1011.3
20260509102154 10 344 0.0 0.0 0.00 0.00 0.00 81 1011.4
20260509101650 10 344 0.0 0.0 0.00 0.00 0.00 81 1011.4
20260509101147 10 344 0.0 0.0 0.00 0.00 0.00 83 1011.3
20260509100644 10 344 0.0 0.0 0.00 0.00 0.00 84 1011.3
20260509100141 10 344 0.0 0.0 0.00 0.00 0.00 84 1011.4
20260509095637 10 344 0.0 0.0 0.00 0.00 0.00 85 1011.2